Weather History for KLBT - January, 2013

Change the Weather History Date:

Monday, January 14, 2013

  Actual Average Record
Temperature  
Mean Temperature 64 °F 43 °F  
Max Temperature 76 °F 53 °F 76 °F (2013)
Min Temperature 52 °F 33 °F 18 °F (2011)
Degree Days  
Heating Degree Days 1 22  
Month to date heating degree days 190 307  
Since 1 July heating degree days 1204 1357  
Cooling Degree Days 0 0  
Month to date cooling degree days 0 0  
Year to date cooling degree days 0 0  
Growing Degree Days 14 (Base 50)    
Moisture  
Dew Point 58 °F    
Average Humidity 80    
Maximum Humidity 100    
Minimum Humidity 60    
Precipitation  
Precipitation 0.00 in 0.08 in 1.02 in (2005)
Month to date precipitation 0.52 1.19  
Year to date precipitation 0.52 1.19  
Sea Level Pressure  
Sea Level Pressure 30.13 in    
Wind  
Wind Speed 6 mph (SSW)    
Max Wind Speed 15 mph    
Max Gust Speed 20 mph    
Visibility 7 miles    
Events Fog    
T = Trace of Precipitation, MM = Missing Value Source: NWS Daily Summary

Daily Weather History Graph

Daily Weather History Graph

Search for Another Location

Airport or City:

Trip Planner

Search our weather history database for the weather conditions in past years. The results will help you decide how hot, cold, wet, or windy it might be!

Date:

Astronomy

Jan. 14, 2013 Rise Set
Actual Time 7:23 AM EST 5:28 PM EST
Civil Twilight 6:55 AM EST 5:55 PM EST
Nautical Twilight 6:24 AM EST 6:26 PM EST
Astronomical Twilight 5:54 AM EST 6:56 PM EST
Moon 9:05 AM EST (1/14) 9:00 PM EST (1/14)
Length of Visible Light 10h 59m
Length of Day
10h 05m
Waxing Crescent, 11% of the Moon is Illuminated
Jan 14
Waxing Crescent
Jan 18
First Quarter
Jan 26
Full
Feb 3
Last Quarter
Feb 10
New

Hourly Weather History & Observations

Time (EST) Temp. Dew Point Humidity Pressure Visibility Wind Dir Wind Speed Gust Speed Precip Events Conditions
12:54 AM 60.1 °F 57.9 °F 93% 30.12 in 10.0 mi SSE 4.6 mph - N/A   Clear
1:54 AM 61.0 °F 57.0 °F 87% 30.12 in 10.0 mi South 6.9 mph - N/A   Clear
2:54 AM 59.0 °F 57.0 °F 93% 30.14 in 10.0 mi West 3.5 mph - N/A   Clear
3:54 AM 59.0 °F 57.0 °F 93% 30.12 in 9.0 mi Calm Calm - N/A   Clear
5:01 AM 57.2 °F 55.4 °F 94% 30.12 in 1.5 mi Calm Calm - N/A   Clear
5:03 AM 55.4 °F 55.4 °F 100% 30.12 in 0.8 mi Calm Calm - N/A   Clear
5:28 AM 53.6 °F 53.6 °F 100% 30.12 in 0.2 mi Calm Calm - N/A Fog Fog
5:54 AM 54.0 °F 54.0 °F 100% 30.12 in 0.2 mi SSE 3.5 mph - N/A Fog Fog
6:34 AM 55.4 °F 55.4 °F 100% 30.13 in 1.2 mi South 4.6 mph - N/A   Partly Cloudy
6:44 AM 55.4 °F 55.4 °F 100% 30.13 in 1.0 mi South 4.6 mph - N/A   Clear
6:49 AM 57.2 °F 57.2 °F 100% 30.13 in 1.8 mi South 4.6 mph - N/A   Partly Cloudy
6:52 AM 57.2 °F 57.2 °F 100% 30.13 in 3.0 mi South 5.8 mph - N/A   Partly Cloudy
6:54 AM 57.0 °F 57.0 °F 100% 30.13 in 3.0 mi South 5.8 mph - N/A   Scattered Clouds
7:54 AM 59.0 °F 59.0 °F 100% 30.15 in 5.0 mi SSW 3.5 mph - N/A   Clear
8:54 AM 62.1 °F 61.0 °F 96% 30.16 in 9.0 mi SSW 8.1 mph - N/A   Clear
9:54 AM 64.9 °F 61.0 °F 87% 30.17 in 10.0 mi SSW 6.9 mph - N/A   Mostly Cloudy
10:54 AM 69.1 °F 62.1 °F 78% 30.16 in 10.0 mi WSW 9.2 mph - N/A   Mostly Cloudy
11:54 AM 73.0 °F 61.0 °F 66% 30.13 in 10.0 mi SW 10.4 mph - N/A   Clear
12:54 PM 75.0 °F 61.0 °F 62% 30.10 in 10.0 mi SW 12.7 mph - N/A   Scattered Clouds
1:54 PM 75.0 °F 61.0 °F 62% 30.09 in 10.0 mi SW 8.1 mph - N/A   Overcast
3:54 PM 75.0 °F 61.0 °F 62% 30.10 in 10.0 mi SSW 8.1 mph - N/A   Partly Cloudy
5:54 PM 71.1 °F 60.1 °F 68% 30.13 in 10.0 mi SSW 3.5 mph - N/A   Clear
6:54 PM 68.0 °F 60.1 °F 76% 30.13 in 10.0 mi Calm Calm - N/A   Clear
7:54 PM 66.0 °F 60.1 °F 81% 30.14 in 10.0 mi SSE 3.5 mph - N/A   Clear
8:54 PM 66.0 °F 61.0 °F 84% 30.13 in 7.0 mi Variable 4.6 mph - N/A   Clear
9:54 PM 66.9 °F 60.1 °F 79% 30.13 in 10.0 mi SSW 8.1 mph - N/A   Clear
10:54 PM 66.9 °F 59.0 °F 76% 30.13 in 10.0 mi SSW 8.1 mph - N/A   Clear
11:54 PM 66.0 °F 59.0 °F 78% 30.14 in 10.0 mi SSW 5.8 mph - N/A   Clear